This is the latest recevied weather packets stored in our database for station/object N1HQ. If no packets are shown the sender has not sent any weather packets the latest 10 day(s).
| Time | Temp. | Humidity | Pressure | Rain* | Wind** | Luminosity | Snow |
|---|---|---|---|---|---|---|---|
| 1778027843 | 22.78° C | 92% | 1012.6 hPa | 0 mm | - | - | - |
| 1778027543 | 22.78° C | 92% | 1012.4 hPa | 0 mm | - | - | - |
| 1778027278 | 22.78° C | 91% | 1012.5 hPa | 0 mm | - | - | - |
| 1778026983 | 22.78° C | 91% | 1012.4 hPa | 0 mm | - | - | - |
| 1778026713 | 23.33° C | 91% | 1012.3 hPa | 0 mm | - | - | - |
| 1778026413 | 23.33° C | 91% | 1012.2 hPa | 0 mm | - | - | - |
| 1778026153 | 23.33° C | 90% | 1012.3 hPa | 0 mm | - | - | - |
| 1778025883 | 23.33° C | 89% | 1012.2 hPa | 0 mm | - | - | - |
| 1778025618 | 23.33° C | 89% | 1012.1 hPa | 0 mm | - | - | - |
| 1778025328 | 23.89° C | 88% | 1012.3 hPa | 0 mm | - | - | - |
| 1778025063 | 23.89° C | 88% | 1012.4 hPa | 0 mm | - | - | - |
| 1778024778 | 23.89° C | 87% | 1012.4 hPa | 0 mm | - | - | - |
| 1778024528 | 23.89° C | 87% | 1012.4 hPa | 0 mm | - | - | - |
| 1778024263 | 23.89° C | 86% | 1012.4 hPa | 0 mm | - | - | - |
| 1778023988 | 24.44° C | 86% | 1012.6 hPa | 0 mm | - | - | - |
| 1778023703 | 24.44° C | 85% | 1012.6 hPa | 0 mm | - | - | - |
| 1778023408 | 24.44° C | 83% | 1012.5 hPa | 0 mm | - | - | - |
| 1778023113 | 25° C | 83% | 1012.3 hPa | 0 mm | - | - | - |
| 1778022854 | 24.44° C | 82% | 1012.3 hPa | 0 mm | - | - | - |
| 1778022613 | 25° C | 81% | 1012.3 hPa | 0 mm | - | - | - |
| 1778022367 | 25° C | 82% | 1012.3 hPa | 0 mm | - | - | - |
| 1778022098 | 25° C | 81% | 1012.4 hPa | 0 mm | - | - | - |
| 1778021848 | 25° C | 80% | 1012.3 hPa | 0 mm | - | - | - |
| 1778021595 | 25° C | 79% | 1012.3 hPa | 0 mm | - | - | - |
| 1778021322 | 25.56° C | 79% | 1012.4 hPa | 0 mm | - | - | - |
* Rain latest hour (hover to see other rain measurements)
** Current wind speed in m/s (hover to see current wind gust speed)